When you browse on this site, cookies collect data to enhance your experience and personalize the content and advertising you see.
Visit our Privacy Policy to learn more. By continuing to use the site, you agree to this use of cookies and data.
  • Em Portugal
  • Lista de países
  • Para 7 dias
  • Temperatura da água
  • Mapas de satélite
  • Mapa do tempo
  • Widgets de tempo
  • user-avatar
    Iniciar Sessão

    Previsão horária em Lusaka

    Hoje, 22 Maio, Quarta-feira

    Tempo Temperatura Precipitação Vento Pressão Humidade
    00:00 +19°C° 0 mm 1 m/s 658 mmHg 56%
    01:00 +18°C° 0 mm 1 m/s 658 mmHg 57%
    02:00 +18°C° 0 mm 1 m/s 658 mmHg 58%
    03:00 +18°C° 0 mm 1 m/s 658 mmHg 59%
    04:00 +16°C° 0 mm 1 m/s 658 mmHg 60%
    05:00 +16°C° 0 mm 2 m/s 658 mmHg 62%
    06:00 +17°C° 0 mm 2 m/s 659 mmHg 58%
    07:00 +18°C° 0 mm 3 m/s 659 mmHg 55%
    08:00 +20°C° 0 mm 3 m/s 660 mmHg 52%
    09:00 +22°C° 0 mm 4 m/s 661 mmHg 47%
    10:00 +25°C° 0 mm 4 m/s 661 mmHg 41%
    11:00 +27°C° 0 mm 4 m/s 662 mmHg 36%
    12:00 +27°C° 0 mm 3 m/s 661 mmHg 34%
    13:00 +28°C° 0 mm 3 m/s 661 mmHg 32%
    14:00 +29°C° 0 mm 3 m/s 660 mmHg 30%
    15:00 +28°C° 0 mm 3 m/s 660 mmHg 32%
    16:00 +27°C° 0 mm 3 m/s 660 mmHg 34%
    17:00 +26°C° 0 mm 3 m/s 659 mmHg 37%
    18:00 +24°C° 0 mm 3 m/s 659 mmHg 42%
    19:00 +21°C° 0 mm 2 m/s 659 mmHg 47%
    20:00 +19°C° 0 mm 2 m/s 659 mmHg 52%
    21:00 +18°C° 0 mm 2 m/s 659 mmHg 52%
    22:00 +17°C° 0 mm 2 m/s 659 mmHg 52%
    23:00 +17°C° 0 mm 2 m/s 659 mmHg 51%

    Amanhã, 23 Maio, Quinta-feira

    Tempo Temperatura Precipitação Vento Pressão Humidade
    00:00 +16°C° 0 mm 2 m/s 659 mmHg 49%
    01:00 +16°C° 0 mm 2 m/s 659 mmHg 46%
    02:00 +16°C° 0 mm 2 m/s 659 mmHg 44%
    03:00 +15°C° 0 mm 2 m/s 659 mmHg 44%
    04:00 +15°C° 0 mm 2 m/s 658 mmHg 44%
    05:00 +15°C° 0 mm 2 m/s 658 mmHg 44%
    06:00 +16°C° 0 mm 3 m/s 659 mmHg 43%
    07:00 +17°C° 0 mm 3 m/s 660 mmHg 42%
    08:00 +18°C° 0 mm 4 m/s 661 mmHg 42%
    09:00 +20°C° 0 mm 4 m/s 661 mmHg 37%
    10:00 +22°C° 0 mm 4 m/s 662 mmHg 33%
    11:00 +25°C° 0 mm 4 m/s 662 mmHg 29%
    12:00 +26°C° 0 mm 3 m/s 662 mmHg 27%
    13:00 +27°C° 0 mm 3 m/s 661 mmHg 26%
    14:00 +28°C° 0 mm 3 m/s 660 mmHg 25%
    15:00 +27°C° 0 mm 3 m/s 660 mmHg 27%
    16:00 +26°C° 0 mm 3 m/s 659 mmHg 29%
    17:00 +25°C° 0 mm 3 m/s 659 mmHg 31%
    18:00 +22°C° 0 mm 3 m/s 659 mmHg 36%
    19:00 +19°C° 0 mm 2 m/s 659 mmHg 41%
    20:00 +17°C° 0 mm 2 m/s 658 mmHg 47%
    21:00 +18°C° 0 mm 1 m/s 659 mmHg 48%
    22:00 +16°C° 0 mm 1 m/s 659 mmHg 49%
    23:00 +15°C° 0 mm 1 m/s 659 mmHg 50%

    Depois de amanhã, 24 Maio, Sexta-feira

    Tempo Temperatura Precipitação Vento Pressão Humidade
    00:00 +15°C° 0 mm 1 m/s 659 mmHg 48%
    01:00 +15°C° 0 mm 1 m/s 659 mmHg 46%
    02:00 +14°C° 0 mm 1 m/s 659 mmHg 45%
    03:00 +14°C° 0 mm 2 m/s 659 mmHg 46%
    04:00 +14°C° 0 mm 2 m/s 659 mmHg 47%
    05:00 +14°C° 0 mm 2 m/s 659 mmHg 48%
    06:00 +14°C° 0 mm 3 m/s 660 mmHg 48%
    07:00 +16°C° 0 mm 3 m/s 661 mmHg 48%
    08:00 +18°C° 0 mm 4 m/s 661 mmHg 48%
    09:00 +20°C° 0 mm 4 m/s 662 mmHg 44%
    10:00 +22°C° 0 mm 4 m/s 662 mmHg 39%
    11:00 +25°C° 0 mm 4 m/s 663 mmHg 35%
    12:00 +26°C° 0 mm 4 m/s 662 mmHg 33%
    13:00 +26°C° 0 mm 3 m/s 661 mmHg 31%
    14:00 +27°C° 0 mm 3 m/s 661 mmHg 29%
    15:00 +26°C° 0 mm 3 m/s 660 mmHg 31%
    16:00 +25°C° 0 mm 3 m/s 660 mmHg 33%
    17:00 +25°C° 0 mm 3 m/s 659 mmHg 36%
    18:00 +22°C° 0 mm 3 m/s 659 mmHg 42%
    19:00 +19°C° 0 mm 2 m/s 659 mmHg 49%
    20:00 +17°C° 0 mm 2 m/s 659 mmHg 56%
    21:00 +17°C° 0 mm 2 m/s 659 mmHg 58%
    22:00 +16°C° 0 mm 1 m/s 659 mmHg 61%
    23:00 +16°C° 0 mm 1 m/s 659 mmHg 64%

    25 Maio, Sábado

    Tempo Temperatura Precipitação Vento Pressão Humidade
    00:00 +15°C° 0 mm 1 m/s 659 mmHg 65%
    01:00 +15°C° 0 mm 1 m/s 659 mmHg 66%
    02:00 +14°C° 0 mm 2 m/s 659 mmHg 67%
    03:00 +14°C° 0 mm 2 m/s 659 mmHg 69%
    04:00 +14°C° 0 mm 2 m/s 659 mmHg 71%
    05:00 +14°C° 0 mm 2 m/s 659 mmHg 73%
    06:00 +14°C° 0 mm 3 m/s 660 mmHg 73%
    07:00 +15°C° 0 mm 4 m/s 661 mmHg 74%
    08:00 +17°C° 0 mm 4 m/s 661 mmHg 74%
    09:00 +19°C° 0 mm 4 m/s 662 mmHg 67%
    10:00 +20°C° 0 mm 4 m/s 662 mmHg 59%
    11:00 +22°C° 0 mm 4 m/s 662 mmHg 51%
    12:00 +23°C° 0 mm 4 m/s 662 mmHg 49%
    13:00 +23°C° 0 mm 4 m/s 661 mmHg 47%
    14:00 +23°C° 0 mm 4 m/s 660 mmHg 45%
    15:00 +24°C° 0 mm 3 m/s 660 mmHg 46%
    16:00 +22°C° 0 mm 3 m/s 660 mmHg 48%
    17:00 +22°C° 0 mm 3 m/s 659 mmHg 49%
    18:00 +20°C° 0 mm 2 m/s 659 mmHg 56%
    19:00 +18°C° 0 mm 2 m/s 659 mmHg 63%
    20:00 +16°C° 0 mm 1 m/s 659 mmHg 71%
    21:00 +16°C° 0 mm 1 m/s 659 mmHg 73%
    22:00 +15°C° 0 mm 1 m/s 659 mmHg 75%
    23:00 +15°C° 0 mm 1 m/s 659 mmHg 78%

    26 Maio, Domingo

    Tempo Temperatura Precipitação Vento Pressão Humidade
    00:00 +14°C° 0 mm 1 m/s 659 mmHg 78%
    01:00 +14°C° 0 mm 1 m/s 659 mmHg 79%
    02:00 +14°C° 0 mm 1 m/s 658 mmHg 80%
    03:00 +14°C° 0 mm 1 m/s 658 mmHg 80%
    04:00 +14°C° 0 mm 1 m/s 659 mmHg 81%
    05:00 +13°C° 0 mm 1 m/s 659 mmHg 81%
    06:00 +14°C° 0 mm 2 m/s 659 mmHg 77%
    07:00 +16°C° 0 mm 3 m/s 660 mmHg 73%
    08:00 +17°C° 0 mm 3 m/s 661 mmHg 69%
    09:00 +19°C° 0 mm 3 m/s 661 mmHg 61%
    10:00 +21°C° 0 mm 3 m/s 662 mmHg 53%
    11:00 +24°C° 0 mm 3 m/s 662 mmHg 45%
    12:00 +25°C° 0 mm 3 m/s 662 mmHg 42%
    13:00 +26°C° 0 mm 3 m/s 661 mmHg 38%
    14:00 +27°C° 0 mm 3 m/s 660 mmHg 35%
    15:00 +26°C° 0 mm 3 m/s 660 mmHg 37%
    16:00 +25°C° 0 mm 3 m/s 660 mmHg 39%
    17:00 +24°C° 0 mm 3 m/s 659 mmHg 41%
    18:00 +21°C° 0 mm 2 m/s 659 mmHg 47%
    19:00 +19°C° 0 mm 2 m/s 659 mmHg 52%
    20:00 +17°C° 0 mm 2 m/s 659 mmHg 57%
    21:00 +17°C° 0 mm 2 m/s 659 mmHg 61%
    22:00 +16°C° 0 mm 1 m/s 659 mmHg 64%
    23:00 +15°C° 0 mm 1 m/s 659 mmHg 67%

    27 Maio, Segunda-feira

    Tempo Temperatura Precipitação Vento Pressão Humidade
    00:00 +15°C° 0 mm 1 m/s 659 mmHg 68%
    01:00 +15°C° 0 mm 1 m/s 659 mmHg 70%
    02:00 +14°C° 0 mm 1 m/s 658 mmHg 71%
    03:00 +14°C° 0 mm 1 m/s 658 mmHg 73%
    04:00 +14°C° 0 mm 1 m/s 659 mmHg 74%
    05:00 +13°C° 0 mm 1 m/s 659 mmHg 76%
    06:00 +15°C° 0 mm 2 m/s 659 mmHg 72%
    07:00 +16°C° 0 mm 3 m/s 660 mmHg 68%
    08:00 +17°C° 0 mm 3 m/s 661 mmHg 64%
    09:00 +19°C° 0 mm 3 m/s 661 mmHg 58%
    10:00 +21°C° 0 mm 4 m/s 661 mmHg 52%
    11:00 +23°C° 0 mm 4 m/s 662 mmHg 46%
    12:00 +23°C° 0 mm 4 m/s 661 mmHg 43%
    13:00 +25°C° 0 mm 3 m/s 660 mmHg 40%
    14:00 +26°C° 0 mm 3 m/s 659 mmHg 37%
    15:00 +25°C° 0 mm 3 m/s 659 mmHg 38%
    16:00 +24°C° 0 mm 3 m/s 659 mmHg 39%
    17:00 +22°C° 0 mm 3 m/s 659 mmHg 40%
    18:00 +21°C° 0 mm 2 m/s 659 mmHg 45%
    19:00 +19°C° 0 mm 2 m/s 659 mmHg 49%
    20:00 +17°C° 0 mm 2 m/s 659 mmHg 54%
    21:00 +16°C° 0 mm 2 m/s 659 mmHg 57%
    22:00 +16°C° 0 mm 1 m/s 659 mmHg 61%
    23:00 +15°C° 0 mm 1 m/s 659 mmHg 65%
    Mostrar mais